Home > Time Zones > World Clock > Weather > Spain > Cadiz > Past weeks

Flag for Spain Weather past 2 weeks in Cadiz, Cádiz, Spain

Now
64 °F

Clear.


Feels Like: 64 °F
Forecast: 67 / 81 °F
Wind: No wind

Location: Rota Airport

Current Time: Aug 23, 2014 at 6:19:39 AM

Latest Report: Aug 23, 2014 at 6:00 AM


Visibility: 10 mi

Pressure: 29.98 "Hg

Humidity: 83%

Dew point: 59 °F

Location of CadizLocation

Historic Weather in Cadiz — Graph

°F

Cadiz temperature yesterday

Maximum temperature yesterday: 77 °F (at 4:00 PM)
Minimum temperature yesterday: 66 °F (at 8:00 AM)
Average temperature yesterday: 72 °F

Past Weeks' High & Low Weather Summary

 TemperatureHumidityPressure
High90 °F (Aug 17, 2:00 PM)94% (Aug 11, 7:00 AM)30.07 "Hg (Aug 11, 7:00 AM)
Low63 °F (Aug 21, 6:00 AM)30% (Aug 14, 5:00 PM)29.80 "Hg (Aug 17, 7:00 PM)
Average75 °F68%29.96 "Hg
* Reported Aug 8 4:00 AM — Aug 23 4:00 AM, Cadiz, Weather by CustomWeather, © 2014

Note: Actual official high and low records may vary slightly from our data, if they occured in-between our weather recording intervals... More about our weather records

Advertising

Cadiz weather history for previous 24 hours

 ConditionsComfort  
Time TempWeatherWind HumidityBarometerVisibility
4:00 AM
Aug 23
66 °FClear.No wind73%30.01 "Hg10 mi
3:00 AM68 °FClear.No wind78%30.01 "Hg10 mi
2:00 AM70 °FClear.No wind73%30.01 "Hg10 mi
1:00 AM72 °FClear.1 mph69%30.01 "Hg10 mi
12:00 AM72 °FClear.6 mph73%30.01 "Hg10 mi
11:00 PM
Aug 22
72 °FClear.8 mph73%29.98 "Hg10 mi
10:00 PM72 °FSunny.8 mph73%29.98 "Hg10 mi
9:00 PM73 °FSunny.14 mph65%29.98 "Hg10 mi
8:00 PM73 °FSunny.16 mph65%29.98 "Hg10 mi
7:00 PM75 °FSunny.17 mph61%29.98 "Hg10 mi
6:00 PM77 °FSunny.16 mph54%29.98 "Hg10 mi
5:00 PM77 °FSunny.16 mph54%30.01 "Hg10 mi
4:00 PM77 °FSunny.16 mph51%30.01 "Hg10 mi
3:00 PM75 °FSunny.15 mph54%30.04 "Hg10 mi
2:00 PM75 °FPassing clouds.14 mph57%30.04 "HgN/A
1:00 PM75 °FPassing clouds.12 mph57%30.04 "HgN/A
12:00 PM73 °FPassing clouds.8 mph61%30.04 "HgN/A
11:00 AM73 °FPassing clouds.8 mph57%30.04 "HgN/A
10:00 AM72 °FSunny.9 mph65%30.01 "Hg10 mi
9:00 AM70 °FPassing clouds.5 mph69%30.01 "HgN/A
8:00 AM66 °FClear.7 mph78%29.98 "Hg10 mi
7:00 AM68 °FClear.7 mph73%29.98 "Hg10 mi
6:00 AM68 °FClear.No wind78%29.98 "Hg10 mi
Weather by CustomWeather, © 2014

See weather overviewHow to use our weather pages